Regional Weather Roundup
Issued by NWS

Home | Current Version | Previous Version | Graphics & Text | Print | Product List | Glossary Off
Versions: 1 2 3 4 5 6 7 8 9 10 11 12 13 14 15 16 17 18 19 20 21 22 23 24 25 26 27 28 29 30 31 32 33 34 35 36 37 38 39 40 41 42 43 44 45 46 47 48 49 50

000
ASUS43 KMKX 250200
RWRWI

WISCONSIN REGIONAL WEATHER ROUNDUP
NATIONAL WEATHER SERVICE MILWAUKEE/SULLIVAN WI
800 PM CST SAT JAN 24 2015

NOTE: "FAIR" INDICATES FEW OR NO CLOUDS BELOW 12,000 FEET WITH NO
SIGNIFICANT WEATHER AND/OR OBSTRUCTIONS TO VISIBILITY.

WIZ001-002-006>008-014>016-023>028-250300-
NORTHWEST WISCONSIN

CITY           SKY/WX    TMP DP  RH WIND       PRES   REMARKS
SUPERIOR ARPT  CLOUDY    28  23  82 E17G24    29.73R WCI  15
ASHLAND        CLOUDY    23  19  85 E17G26    29.76R WCI   9
HAYWARD        CLOUDY    28  23  81 NE16      29.68R WCI  16
SIREN          CLOUDY    36  30  79 NE5       29.65R WCI  32
CUMBERLAND     CLOUDY    34  30  86 NE5       29.63R WCI  30
RICE LAKE      CLOUDY    34  31  90 NE3       29.64S
CHETEK         CLOUDY    33  31  92 CALM      29.63S
LADYSMITH      CLOUDY    35  31  85 NE5       29.64S WCI  31
EAU CLAIRE     NOT AVBL
MENOMONIE      CLOUDY    32  30  92 CALM      29.63S
NEW RICHMOND   CLOUDY    32  31  94 CALM      29.62S
OSCEOLA        CLOUDY    36  31  83 E5        29.64S WCI  32
$$

WIZ003>005-009-010-017-018-250300-
NORTH CENTRAL WISCONSIN

CITY           SKY/WX    TMP DP  RH WIND       PRES   REMARKS
MANITOWISH WTR CLOUDY    22  19  88 NE8G16    29.67R WCI  12
ARBOR VITAE    CLOUDY    26  22  85 NE7       29.66R WCI  18
WOODRUFF       CLOUDY    26  22  85 NE7       29.66R WCI  18
RHINELANDER    CLOUDY    26  21  81 NE12      29.66R WCI  16
EAGLE RIVER    CLOUDY    22  18  83 NE14      29.66R WCI   9
LAND O LAKES   CLOUDY    21  17  85 NE7       29.69R WCI  12
PHILLIPS       CLOUDY    28  24  84 NE12      29.65R WCI  18
TOMAHAWK       CLOUDY    31  26  81 N3G16     29.65R
MEDFORD        CLOUDY    32  30  92 CALM      29.62R
MERRILL        CLOUDY    34  30  85 CALM      29.63R
$$

WIZ029-030-035-036-043>047-250300-
CENTRAL WISCONSIN

CITY           SKY/WX    TMP DP  RH WIND       PRES   REMARKS
WAUSAU         CLOUDY    34  30  85 CALM      29.62R
MOSINEE        MOCLDY    34  32  93 CALM      29.64R
MARSHFIELD     CLOUDY    33  30  88 CALM      29.63R
STEVENS POINT  CLOUDY    32  30  93 CALM      29.65R
WAUPACA        CLOUDY    34  31  89 S3        29.64R
WAUTOMA        NOT AVBL
WISC RAPIDS    CLOUDY    31  28  89 CALM      29.66R
CAMP DOUGLAS   MOCLDY    27  27 100 SE5       29.64S WCI  21
$$

WIZ011>013-019>022-031-037>040-048>050-250300-
NORTHEAST WISCONSIN

CITY           SKY/WX    TMP DP  RH WIND       PRES   REMARKS
ANTIGO         CLOUDY    32  27  80 NE9       29.62R WCI  24
SHAWANO        CLOUDY    33  29  83 E12G18    29.67R WCI  25
OCONTO         CLOUDY    28  23  83 E10       29.70R WCI  18
STURGEON BAY   CLOUDY    25  19  80 NE15G22   29.73R WCI  12
GREEN BAY      CLOUDY    29  25  85 NE22G30   29.69R WCI  15
MANITOWOC      MIX PCPN  32  30  93 NE7G18    29.68R WCI  26
APPLETON       CLOUDY    34  32  93 VRB5      29.64S WCI  30
CLINTONVILLE   CLOUDY    34  30  86 E12       29.64R WCI  25
OSHKOSH        FLURRIES  33  30  88 SW3       29.66R
$$

WIZ032>034-041-042-053>061-250300-
SOUTHWEST WISCONSIN

CITY           SKY/WX    TMP DP  RH WIND       PRES   REMARKS
LA CROSSE      CLOUDY    34  30  85 CALM      29.62F
SPARTA         CLOUDY    31  28  92 CALM      29.65S
VIROQUA        CLOUDY    34  32  91 CALM      29.61S
BOSCOBEL       CLOUDY    33  29  85 CALM      29.63F
PRAIRIE DU CHI CLOUDY    36  32  86 CALM      29.62F
PLATTEVILLE    CLOUDY    36  34  91 S3        29.63S
$$

WIZ056-057-062-063-064-067-068-250300-
SOUTH CENTRAL WISCONSIN

CITY           SKY/WX    TMP DP  RH WIND       PRES   REMARKS
REEDSBURG      CLOUDY    31  30  94 CALM      29.65R
BARABOO/DELLS  CLOUDY    29  28  93 CALM      29.65R FOG
LONE ROCK      NOT AVBL
MINERAL POINT  CLOUDY    37  32  81 CALM      29.63R
MADISON        CLOUDY    31  28  89 CALM      29.66R
MIDDLETON      MOCLDY    30  29  96 CALM      29.66R
WATERTOWN      CLOUDY    33  31  94 W3        29.66R
MONROE         CLOUDY    32  32 100 S6        29.63S WCI  26
JANESVILLE     PTCLDY    30  28  93 VRB5      29.66R WCI  25
$$

WIZ051-052-058>065-066-070>072-250300-
SOUTHEAST WISCONSIN

CITY           SKY/WX    TMP DP  RH WIND       PRES   REMARKS
MILWAUKEE      CLOUDY    35  29  78 W6        29.68R WCI  30
WAUKESHA       CLOUDY    32  28  86 W6        29.67R WCI  26
MILWAUKEE/TIMM NOT AVBL
RACINE         CLOUDY    34  29  82 W3        29.69R
BURLINGTON     CLOUDY    32  29  91 NW3       29.67S
KENOSHA        CLOUDY    33  30  88 NW7       29.67S WCI  27
FOND DU LAC    CLOUDY    34  30  85 MISG      29.66R
SHEBOYGAN      CLOUDY    34  30  85 NW5       29.65R WCI  30
WEST BEND      CLOUDY    34  30  86 CALM      29.64S
JUNEAU         CLOUDY    32  31  94 SW5       29.66S WCI  28
$$

LSZ147-162-250300-
LAKE SUPERIOR

STATION/POSITION TIME  TEMP    WIND        PRES    WAVE
                       AIR SEA DIR/SP/G            HT/PER
                 (UTC) (F)     (DEG/KT/KT) (MB)    (FT/S)
DEVILS ISLAND    0100   23      80/ 26/ 31 1009.0R
PORT WING        0100   26      80/  7/ 15 1007.5R
SAXON HARBOR     0100   26      60/ 13/ 15 1007.1R
$$

LMZ867-665-643>646-250300-
LAKE MICHIGAN

STATION/POSITION TIME  TEMP    WIND        PRES    WAVE
                       AIR SEA DIR/SP/G            HT/PER
                 (UTC) (F)     (DEG/KT/KT) (MB)    (FT/S)
NORTHPORT PIER   0101   25     360/ 18/ 22 1006.4R
SISTER BAY       0113   24      10/ 18/ 23   N/A
KEWAUNEE LAKESHO 0100   31      40/ 20/ 24 1004.2R
SHEBOYGAN LAKESH 0100   36     290/  4/  5 1004.9R
PORT WASHINGTON  0100   37        CALM     1005.4R
MILWAUKEE LAKESH 0100   36     290/  4/  5   N/A
KENOSHA   LAKESH 0100   34     280/  8/ 11 1005.1R
$$

TC  - TEMPERATURE IN CELSIUS
VSB - VISIBILITY IN STATUTE MILES
WCI - WIND CHILL INDEX
HX  - HEAT INDEX




USA.gov is the U.S. government's official web portal to all federal, state and local government web resources and services.